CAPE
94 78 75 64 46 40 49 54 53 64 65 65 68 63 54 56 66 48 17 14 8 2 6 6 19 3 0 0 0 0 0 0 0 0 2 8 0 0 0 0 23 17 9 9 5 10 0 0 0 97 9 0 0 0
74 51 30 19 31 45 49 46 29 46 53 57 60 64 56 32 49 59 5 27 4 19 14 0 3 0 0 0 0 0 0 0 0 0 0 0 0 0 0 0 0 0 0 0 0 0 0 0 0 1 0 2 0 0
41 14 10 21 35 48 45 53 41 33 62 59 64 70 74 65 46 39 18 1 1 2 8 1 0 0 0 0 0 0 0 0 0 0 0 0 0 0 0 0 0 0 0 0 0 0 0 0 0 0 0 0 0 0
7 20 36 38 28 26 29 28 50 57 58 52 52 69 71 75 67 45 14 7 6 8 2 5 0 0 0 0 15 0 0 11 0 0 0 0 4 0 0 0 0 0 0 0 0 0 0 0 0 0 0 0 0 0
41 22 18 27 29 31 29 40 29 43 81 98 71 49 74 82 85 26 16 6 1 3 2 0 0 0 0 0 0 2 26 14 17 23 5 12 0 6 0 0 0 0 1 1 0 0 1 0 0 0 0 0 0 0
23 25 18 27 35 23 20 34 48 36 54 97 122 118 89 70 62 4 7 11 11 36 16 0 0 0 0 0 0 0 32 49 20 14 2 0 2 8 14 0 0 0 0 0 0 0 0 0 0 0 0 0 0 0
25 27 31 30 27 32 25 33 38 42 52 83 114 137 104 56 0 0 0 0 8 3 8 0 0 9 0 1 0 1 13 40 1 10 14 1 2 27 0 0 1 0 0 0 0 0 0 0 0 0 0 0 0 0
18 27 19 29 18 15 18 15 36 50 55 61 84 104 59 11 23 37 0 1 0 3 0 0 7 52 17 15 13 6 5 12 8 2 0 0 0 0 4 0 2 1 0 0 0 0 1 0 0 0 0 0 0 0
8 9 7 15 19 7 2 26 48 65 68 77 55 8 8 1 10 12 11 0 0 0 0 0 1 13 1 2 1 0 0 0 0 0 0 0 0 2 1 2 2 4 5 6 3 0 0 1 0 1 0 0 0 0
0 0 1 6 15 12 9 6 41 47 17 8 2 1 0 14 13 12 1 1 0 0 2 0 1 1 5 0 0 0 0 0 0 0 0 0 1 2 2 1 2 4 6 4 5 0 0 1 2 2 1 1 2 2
0 0 0 1 10 12 12 11 25 24 13 0 3 2 9 0 0 0 0 0 1 0 2 0 0 1 0 0 0 0 0 0 0 0 0 0 1 1 0 0 2 3 2 1 2 1 1 2 2 2 1 2 2 1
0 0 0 0 3 5 15 6 1 0 0 2 4 2 0 1 0 0 0 0 0 2 3 0 0 0 0 0 0 0 0 0 0 1 0 0 5 1 2 1 3 3 2 1 2 2 3 3 3 3 3 2 3 2
0 0 0 0 0 0 0 3 0 0 0 0 0 0 0 0 0 0 0 0 0 0 0 0 0 0 0 0 0 0 1 0 0 0 0 0 1 1 5 2 2 1 1 2 3 3 3 2 2 2 1 0 0 0
0 0 0 0 0 0 0 0 0 0 0 0 0 0 0 0 0 0 0 0 0 0 0 0 0 0 0 0 0 0 0 0 0 0 0 1 3 2 2 4 0 1 1 1 0 0 0 0 0 0 0 0 0 0
0 0 0 0 0 0 0 0 0 0 0 0 0 0 0 0 0 0 0 0 0 0 0 0 0 0 0 0 0 0 0 0 0 0 0 0 0 0 0 1 1 1 0 0 0 0 0 0 0 0 0 0 0 0
0 0 0 0 0 0 0 0 0 0 0 0 0 0 0 0 0 0 0 0 0 0 0 0 0 0 0 0 0 0 0 0 0 0 0 0 0 0 0 0 0 0 0 0 0 1 0 0 0 0 0 0 0 0
0 3 0 2 0 0 0 0 0 0 0 0 0 0 0 0 0 0 0 0 0 0 0 0 0 1 0 0 0 0 0 0 0 0 0 0 0 0 0 0 0 0 0 0 0 0 0 0 0 0 0 1 1 1
0 0 0 0 0 0 0 0 0 0 0 0 0 0 0 0 0 0 0 0 0 1 2 1 0 0 0 0 0 0 0 0 0 0 0 0 0 0 0 0 0 0 0 0 0 0 0 0 1 2 1 0 0 0
0 0 0 0 0 0 0 0 0 0 0 0 0 0 0 0 0 0 0 0 1 0 0 1 0 0 0 0 0 0 0 0 0 0 0 0 0 0 0 0 0 0 0 0 0 0 1 0 1 0 0 0 0 0
0 0 0 0 0 0 0 0 0 0 0 0 1 0 0 2 0 0 0 1 0 0 0 0 0 0 0 0 0 0 0 0 0 0 0 0 0 0 0 0 0 0 0 0 0 0 0 0 0 0 0 0 0 0
0 0 0 0 0 0 0 0 0 0 0 0 0 0 0 0 0 0 0 0 0 2 0 0 0 0 0 0 0 0 0 0 0 0 0 0 0 0 0 0 0 0 0 0 0 0 0 0 0 0 0 0 0 0
0 0 0 0 0 0 0 0 0 0 0 2 3 0 0 0 0 0 0 0 0 0 0 0 0 0 0 0 0 0 0 0 0 0 0 0 0 0 0 0 0 0 0 0 0 0 0 0 0 0 0 0 0 0
0 0 0 0 0 0 0 0 0 0 0 0 0 0 0 0 0 0 0 0 0 2 0 0 0 0 0 0 0 0 0 0 0 0 0 0 0 0 0 0 0 0 0 0 0 0 0 0 0 0 0 0 0 0
0 0 0 0 0 0 0 0 0 0 0 0 0 0 0 0 0 0 0 0 0 0 0 0 0 0 0 0 0 0 0 0 0 0 0 0 0 0 0 0 0 0 0 0 0 0 0 0 0 0 0 0 0 0
0 0 0 0 0 0 0 0 0 0 0 0 0 0 0 0 0 0 0 0 0 0 0 0 0 0 0 0 0 0 0 0 0 0 0 0 0 0 0 0 0 0 0 0 0 0 0 0 0 0 0 0 0 0
0 0 0 0 0 0 0 0 0 0 0 0 0 0 0 0 0 0 0 0 0 0 0 0 0 0 0 0 0 0 0 0 0 0 0 0 0 0 0 0 0 0 0 0 0 0 0 0 0 0 0 0 0 0
0 0 0 0 0 0 0 0 0 0 0 0 0 0 0 0 0 0 0 0 0 0 0 0 0 0 0 0 0 0 0 0 0 0 0 0 0 0 0 0 0 0 0 0 0 0 0 0 0 0 0 0 0 0
0 0 0 0 0 0 0 0 0 0 0 0 0 0 0 0 0 0 0 0 0 0 0 0 0 0 0 0 0 0 0 0 0 0 0 0 0 0 0 0 0 0 0 0 0 0 0 0 0 0 0 0 0 0
0 0 0 0 0 0 0 0 0 0 0 0 0 0 0 0 0 0 0 0 0 0 0 0 0 0 0 0 0 0 0 0 0 0 0 0 0 0 0 0 0 0 0 0 0 0 0 0 0 0 0 0 0 0
0 0 0 0 0 0 0 0 0 0 0 0 0 0 0 0 0 0 0 0 0 0 0 0 0 0 0 0 0 0 0 0 0 0 0 0 0 0 0 0 0 0 0 0 0 0 1 0 0 0 0 0 0 0
0 0 0 0 0 0 0 0 0 0 0 0 0 0 0 0 0 0 0 0 0 0 0 0 0 0 0 0 0 0 0 0 0 0 0 0 0 0 0 0 0 0 0 0 0 0 0 0 0 0 0 0 0 0
0 0 0 0 0 0 0 0 0 0 0 0 0 0 0 0 0 0 0 0 0 0 0 0 0 0 0 0 0 0 0 0 0 0 0 0 0 0 0 0 0 0 0 0 0 0 0 0 0 0 0 0 0 0
0 0 0 0 0 0 0 0 0 0 0 0 0 0 0 0 0 0 0 0 0 0 0 0 0 0 0 0 0 0 0 0 0 0 0 0 0 0 0 0 0 0 0 0 0 0 0 0 0 0 0 0 0 0
CIN
-0 -0 -0 -0 -0 -0 -0 -0 -0 -0 -0 -0 -0 -1 -0 -0 -0 -0 -1 -1 -0 -0 -0 -1 -3 -5 -5 -0 -0 -0 -0 -0 -0 -0 -0 -4 -0 -0 -0 -0 -23 -7 -8 -11 -23 -9 -0 -0 -0 -18 -18 -0 -0 -0
-0 -0 -0 -1 -1 -0 -0 -0 -0 -0 -0 -0 -0 -0 -2 -0 -0 -0 -0 -1 -1 -0 -0 -1 -15 -0 -0 -0 -0 -3 -0 -0 -0 -0 -0 -0 -0 -0 -0 -0 -0 -0 -0 -0 -0 -0 -0 -0 -0 -14 -0 -146 -0 -0
-0 -0 -0 -0 -7 -8 -6 -10 -6 -0 -0 -0 -0 -0 -0 -0 -0 -0 -0 -1 -0 -0 -0 -1 -0 -0 -0 -0 -0 -0 -0 -0 -0 -0 -0 -0 -0 -0 -0 -0 -0 -0 -0 -0 -0 -0 -0 -0 -0 -0 -0 -0 -0 -0
-0 -0 -1 -7 -9 -5 -3 -2 -2 -5 -3 -3 -0 -0 -0 -0 -0 -0 -0 -1 -0 -0 -0 -0 -0 -18 -0 -19 -69 -0 -0 -56 -0 -0 -0 -0 -7 -0 -0 -0 -0 -0 -0 -0 -0 -0 -0 -0 -0 -0 -0 -0 -0 -0
-0 -2 -3 -7 -9 -9 -6 -4 -4 -3 -3 -2 -0 -0 -0 -0 -0 -1 -2 -2 -7 -5 -0 -0 -0 -0 -0 -0 -0 -21 -36 -37 -28 -24 -39 -6 -0 -29 -0 -0 -0 -9 -41 -19 -0 -0 -0 -0 -0 -0 -0 -0 -0 -0
-0 -4 -10 -11 -8 -1 -1 -1 -2 -0 -0 -0 -0 -0 -0 -0 -1 -1 -0 -0 -13 -11 -0 -0 -0 -0 -0 -0 -0 -3 -18 -13 -18 -3 -3 -0 -88 -24 -20 -0 -0 -0 -0 -0 -0 -0 -0 -0 -0 -0 -0 -0 -0 -0
-2 -1 -9 -1 -1 -4 -2 -28 -12 -0 -0 -0 -0 -0 -1 -0 -1 -2 -0 -0 -7 -6 -0 -0 -0 -4 -0 -4 -1 -8 -17 -8 -6 -11 -13 -15 -50 -42 -1 -0 -0 -0 -0 -0 -0 -0 -0 -0 -0 -0 -0 -0 -0 -0
-3 -0 -0 -0 -1 -5 -13 -1 -17 -10 -6 -5 -7 -1 -0 -0 -1 -1 -0 -0 -0 -2 -0 -0 -4 -0 -16 -6 -1 -16 -5 -1 -1 -0 -0 -0 -0 -4 -0 -0 -0 -0 -0 -0 -0 -0 -0 -0 -0 -0 -0 -0 -0 -0
-2 -6 -0 -1 -1 -3 -0 -12 -12 -10 -5 -1 -0 -0 -0 -0 -0 -1 -1 -0 -0 -0 -0 -0 -12 -0 -4 -1 -5 -0 -2 -0 -0 -0 -2 -0 -0 -0 -0 -0 -0 -0 -0 -0 -0 -0 -0 -0 -0 -0 -0 -0 -0 -0
-0 -0 -40 -8 -1 -0 -3 -5 -0 -0 -0 -0 -4 -0 -0 -0 -1 -4 -19 -13 -0 -0 -29 -0 -0 -0 -0 -0 -0 -0 -0 -0 -0 -0 -0 -0 -0 -0 -0 -0 -0 -0 -0 -0 -0 -0 -0 -0 -0 -0 -0 -0 -0 -0
-17 -16 -0 -13 -19 -2 -0 -2 -3 -8 -36 -0 -0 -0 -0 -0 -0 -0 -0 -0 -0 -0 -0 -0 -0 -0 -0 -0 -0 -0 -0 -0 -0 -0 -0 -0 -0 -0 -1 -0 -0 -0 -0 -0 -0 -0 -0 -0 -0 -0 -0 -0 -0 -0
-11 -0 -0 -0 -6 -16 -14 -11 -12 -0 -0 -2 -1 -0 -0 -0 -0 -0 -0 -0 -0 -0 -0 -0 -0 -0 -0 -0 -0 -0 -0 -0 -0 -0 -0 -0 -0 -0 -0 -0 -0 -0 -0 -0 -0 -0 -0 -0 -0 -0 -0 -0 -0 -0
-0 -0 -0 -0 -0 -0 -0 -17 -13 -0 -0 -0 -0 -0 -0 -0 -0 -0 -0 -0 -0 -0 -0 -0 -0 -0 -0 -0 -0 -0 -1 -0 -0 -0 -0 -0 -0 -0 -0 -0 -0 -0 -0 -0 -0 -0 -0 -0 -0 -0 -0 -0 -0 -0
-0 -0 -0 -0 -0 -0 -0 -0 -0 -0 -0 -0 -0 -0 -0 -0 -0 -0 -0 -0 -0 -0 -0 -0 -0 -0 -0 -0 -0 -0 -0 -0 -0 -0 -0 -0 -0 -0 -0 -0 -0 -0 -0 -0 -0 -0 -0 -0 -0 -0 -0 -0 -0 -0
-0 -0 -0 -0 -0 -0 -0 -0 -0 -0 -0 -0 -0 -0 -0 -0 -0 -0 -0 -0 -0 -0 -0 -0 -0 -0 -0 -0 -0 -0 -0 -0 -0 -0 -0 -0 -0 -0 -0 -0 -0 -0 -0 -0 -0 -0 -0 -0 -0 -0 -0 -0 -0 -0
-0 -0 -0 -0 -0 -0 -0 -0 -0 -0 -0 -0 -0 -0 -0 -0 -0 -0 -0 -0 -0 -0 -0 -0 -0 -0 -0 -0 -0 -0 -0 -0 -0 -0 -0 -0 -0 -0 -0 -0 -0 -0 -0 -0 -0 -0 -0 -0 -0 -0 -0 -0 -0 -0
-0 -10 -1 -13 -0 -0 -0 -0 -0 -0 -0 -0 -0 -0 -0 -0 -0 -0 -0 -0 -0 -0 -0 -0 -0 -0 -0 -0 -0 -0 -0 -0 -0 -0 -0 -0 -0 -0 -0 -0 -0 -0 -0 -0 -0 -0 -0 -0 -0 -0 -0 -0 -0 -0
-1 -0 -1 -0 -0 -0 -0 -0 -0 -0 -0 -0 -0 -0 -0 -0 -0 -0 -0 -0 -0 -0 -0 -0 -0 -0 -0 -0 -0 -0 -0 -0 -0 -0 -0 -0 -0 -0 -0 -0 -0 -0 -0 -0 -0 -0 -0 -0 -0 -0 -0 -0 -0 -0
-0 -0 -0 -0 -0 -0 -0 -0 -0 -0 -0 -0 -0 -0 -0 -0 -0 -0 -0 -0 -0 -0 -0 -0 -0 -0 -0 -0 -0 -0 -0 -0 -0 -0 -0 -0 -0 -0 -0 -0 -0 -0 -0 -0 -0 -0 -0 -0 -0 -0 -0 -0 -0 -0
-0 -0 -0 -0 -0 -0 -0 -0 -0 -0 -0 -1 -2 -0 -0 -0 -0 -0 -0 -0 -0 -0 -0 -0 -0 -0 -0 -0 -0 -0 -0 -0 -0 -0 -0 -0 -0 -0 -0 -0 -0 -0 -0 -0 -0 -0 -0 -0 -0 -0 -0 -0 -0 -0
-0 -0 -0 -0 -0 -0 -0 -0 -0 -0 -0 -0 -0 -0 -0 -0 -0 -0 -0 -0 -0 -0 -0 -0 -0 -0 -0 -0 -0 -0 -0 -0 -0 -0 -0 -0 -0 -0 -0 -0 -0 -0 -0 -0 -0 -0 -0 -0 -0 -0 -0 -0 -0 -0
-0 -0 -0 -0 -0 -0 -0 -0 -0 -0 -3 -1 -2 -1 -0 -0 -0 -0 -0 -0 -0 -0 -0 -0 -0 -0 -0 -0 -0 -0 -0 -0 -0 -0 -0 -0 -0 -0 -0 -0 -0 -0 -0 -0 -0 -0 -0 -0 -0 -0 -0 -0 -0 -0
-0 -0 -0 -0 -0 -0 -0 -0 -0 -0 -0 -0 -0 -0 -0 -0 -0 -0 -0 -0 -0 -0 -0 -0 -0 -0 -0 -0 -0 -0 -0 -0 -0 -0 -0 -0 -0 -0 -0 -0 -0 -0 -0 -0 -0 -0 -0 -0 -0 -0 -0 -0 -0 -0
-0 -0 -0 -0 -0 -0 -0 -0 -0 -0 -0 -0 -0 -0 -0 -0 -0 -0 -0 -0 -0 -0 -0 -0 -0 -0 -0 -0 -0 -0 -0 -0 -0 -0 -0 -0 -0 -0 -0 -0 -0 -0 -0 -0 -0 -0 -0 -0 -0 -0 -0 -0 -0 -0
-0 -0 -0 -0 -0 -0 -0 -0 -0 -0 -0 -0 -0 -0 -0 -0 -0 -0 -0 -0 -0 -0 -0 -0 -0 -0 -0 -0 -0 -0 -0 -0 -0 -0 -0 -0 -0 -0 -0 -0 -0 -0 -0 -0 -0 -0 -0 -0 -0 -0 -0 -0 -0 -0
-0 -0 -0 -0 -0 -0 -0 -0 -0 -0 -0 -0 -0 -0 -0 -0 -0 -0 -0 -0 -0 -0 -0 -0 -0 -0 -0 -0 -0 -0 -0 -0 -0 -0 -0 -0 -0 -0 -0 -0 -0 -0 -0 -0 -0 -0 -0 -0 -0 -0 -0 -0 -0 -0
-0 -0 -0 -0 -0 -0 -0 -0 -0 -0 -0 -0 -0 -0 -0 -0 -0 -0 -0 -0 -0 -0 -0 -0 -0 -0 -0 -0 -0 -0 -0 -0 -0 -0 -0 -0 -0 -0 -0 -0 -0 -0 -0 -0 -0 -0 -0 -0 -0 -0 -0 -0 -0 -0
-0 -0 -0 -0 -0 -0 -0 -0 -0 -0 -0 -0 -0 -0 -0 -0 -0 -0 -0 -0 -0 -0 -0 -0 -0 -0 -0 -0 -0 -0 -0 -0 -0 -0 -0 -0 -0 -0 -0 -0 -0 -0 -0 -0 -0 -0 -0 -0 -0 -0 -0 -0 -0 -0
-0 -0 -0 -0 -0 -0 -0 -0 -0 -0 -0 -0 -0 -0 -0 -0 -0 -0 -0 -0 -0 -0 -0 -0 -0 -0 -0 -0 -0 -0 -0 -0 -0 -0 -0 -0 -0 -0 -0 -0 -0 -0 -0 -0 -0 -0 -0 -0 -0 -0 -0 -0 -0 -0
-0 -0 -0 -0 -0 -0 -0 -0 -0 -0 -0 -0 -0 -0 -0 -0 -0 -0 -0 -0 -0 -0 -0 -0 -0 -0 -0 -0 -0 -0 -0 -0 -0 -0 -0 -0 -0 -0 -0 -0 -0 -0 -0 -0 -0 -0 -0 -0 -0 -0 -0 -0 -0 -0
-0 -0 -0 -0 -0 -0 -0 -0 -0 -0 -0 -0 -0 -0 -0 -0 -0 -0 -0 -0 -0 -0 -0 -0 -0 -0 -0 -0 -0 -0 -0 -0 -0 -0 -0 -0 -0 -0 -0 -0 -0 -0 -0 -0 -0 -0 -0 -0 -0 -0 -0 -0 -0 -0
-0 -0 -0 -0 -0 -0 -0 -0 -0 -0 -0 -0 -0 -0 -0 -0 -0 -0 -0 -0 -0 -0 -0 -0 -0 -0 -0 -0 -0 -0 -0 -0 -0 -0 -0 -0 -0 -0 -0 -0 -0 -0 -0 -0 -0 -0 -0 -0 -0 -0 -0 -0 -0 -0
-0 -0 -0 -0 -0 -0 -0 -0 -0 -0 -0 -0 -0 -0 -0 -0 -0 -0 -0 -0 -0 -0 -0 -0 -0 -0 -0 -0 -0 -0 -0 -0 -0 -0 -0 -0 -0 -0 -0 -0 -0 -0 -0 -0 -0 -0 -0 -0 -0 -0 -0 -0 -0 -0
Wind_Speed
25 25 23 23 24 24 24 24 23 23 22 21 20 20 21 24 29 19 7 14 9 2 4 17 11 9 8 10 7 4 3 1 3 5 4 4 3 5 2 4 5 6 6 3 3 1 10 5 1 3 5 5 4 10
25 25 25 26 25 24 24 25 26 25 24 24 23 21 22 22 19 23 2 9 10 7 0 1 5 7 18 19 10 10 7 5 6 4 2 2 1 1 4 2 1 2 7 7 8 9 4 3 6 6 3 5 4 7
24 26 27 24 22 21 17 20 23 24 23 25 25 25 23 23 24 18 5 5 5 4 2 4 6 8 5 12 7 6 3 4 4 3 5 3 3 4 3 6 4 4 4 3 1 3 6 5 6 6 6 10 9 9
26 25 19 17 13 15 18 18 18 23 22 24 23 25 26 25 25 22 4 7 4 3 2 3 1 6 6 5 5 4 2 3 4 2 2 3 3 3 3 4 6 6 4 4 6 4 8 2 5 11 18 14 16 19
17 14 16 17 16 18 18 19 21 21 21 24 24 24 26 27 26 14 6 7 6 1 2 2 3 4 4 7 7 4 4 3 2 1 2 3 3 3 1 1 2 2 1 3 5 1 3 6 7 10 13 16 16 15
15 13 14 16 15 15 15 16 18 26 23 22 24 24 24 26 25 8 3 5 5 2 2 3 1 3 6 6 8 7 6 4 4 4 3 4 3 3 3 2 3 3 6 6 5 9 9 12 2 10 9 15 14 13
13 15 15 16 15 8 5 9 22 27 24 23 24 24 23 23 14 6 5 7 15 3 2 2 2 3 6 4 2 2 2 2 2 3 4 3 3 4 2 3 5 7 9 11 7 11 4 8 6 10 11 11 9 8
16 20 21 19 19 19 13 16 24 25 24 23 23 25 25 28 11 2 3 23 15 3 2 3 3 4 8 4 4 2 3 2 1 3 2 4 1 2 3 3 5 8 11 9 9 9 9 6 8 9 8 4 8 12
16 22 22 23 22 23 23 18 21 22 24 26 30 32 14 4 3 4 22 12 3 3 3 2 3 5 3 2 3 2 2 3 2 2 1 3 2 1 5 6 8 10 9 13 14 13 6 5 7 8 9 10 9 12
16 20 22 21 23 28 27 30 32 33 36 30 9 4 3 3 28 13 5 3 3 1 1 3 2 3 3 3 3 4 2 4 3 3 3 4 3 7 7 6 7 9 11 10 11 7 11 7 7 9 11 10 8 11
19 21 19 16 15 19 22 23 21 15 12 4 2 4 10 7 4 3 4 4 3 2 2 1 2 4 2 3 3 1 3 3 5 1 3 2 3 3 5 7 8 8 8 8 7 7 8 7 7 7 9 11 10 12
17 17 18 18 17 15 10 4 9 5 3 7 7 6 6 7 4 5 2 2 1 1 1 2 2 3 3 4 4 1 3 1 3 2 4 3 3 6 7 8 9 8 8 9 10 10 10 10 9 10 10 11 12 13
14 14 16 17 15 16 18 13 6 13 5 4 6 6 4 5 10 5 2 2 2 5 4 2 4 2 2 3 3 2 2 3 2 4 3 2 5 7 6 6 8 10 10 11 12 12 13 14 14 12 13 12 12 13
15 14 15 16 15 17 13 9 9 8 7 6 6 8 6 5 3 1 1 2 3 2 4 2 3 3 2 4 3 4 2 4 4 3 2 2 5 6 7 7 8 9 11 11 11 12 13 13 14 14 14 12 12 13
10 14 14 14 11 13 16 14 12 5 5 6 6 6 4 2 2 3 3 1 3 4 2 2 4 4 5 6 4 4 6 5 3 1 1 2 5 7 8 7 8 9 9 10 10 11 12 13 13 15 14 13 13 12
5 5 10 13 11 10 8 6 6 5 6 6 8 4 3 3 4 4 4 3 4 4 2 4 4 5 6 3 6 5 3 2 1 2 2 4 7 7 7 8 9 9 10 10 10 11 12 13 13 14 13 13 13 13
10 4 12 9 9 13 13 7 5 9 6 6 4 2 1 1 2 3 3 5 5 3 4 3 7 6 3 4 4 4 2 2 3 3 4 6 6 7 7 9 9 9 10 10 10 11 11 10 10 12 14 12 12 12
3 4 11 9 4 6 5 7 6 7 8 4 4 4 3 2 3 3 5 6 3 3 3 5 3 5 4 3 3 2 3 4 5 5 5 6 7 8 8 9 9 9 10 9 10 10 10 10 10 8 10 10 10 10
3 5 12 4 5 5 5 6 5 7 4 1 2 3 2 2 4 5 5 6 7 6 5 4 5 3 3 3 5 5 4 3 5 5 7 9 8 8 9 9 9 10 10 10 10 7 7 10 8 6 6 6 6 5
5 5 10 6 4 5 6 4 4 6 3 2 1 5 3 3 4 3 6 6 5 4 7 6 4 3 3 4 4 5 5 5 6 7 6 6 6 8 8 6 6 7 7 8 8 8 6 7 7 6 6 6 6 4
5 6 8 5 5 7 5 3 5 4 5 3 2 2 4 5 8 6 6 6 7 7 5 4 3 6 8 8 6 6 7 6 4 3 3 4 5 6 7 6 7 6 5 4 5 5 6 5 4 4 5 4 3 3
3 7 3 5 6 6 5 5 6 5 4 3 2 4 3 3 3 6 3 8 6 4 4 3 5 6 8 8 8 8 8 10 9 7 8 6 4 4 4 3 5 5 5 3 3 3 3 3 3 3 4 2 4 4
3 4 4 5 8 6 2 0 4 2 4 2 3 4 4 3 2 2 6 4 3 5 4 5 7 10 10 9 9 10 9 9 7 6 6 5 5 3 4 4 2 4 3 3 2 2 3 3 4 3 3 3 3 3
6 6 6 5 5 3 2 5 3 4 4 4 4 4 3 0 1 5 4 2 1 2 4 6 5 6 6 8 6 5 5 5 6 4 2 4 5 4 3 3 3 3 2 3 4 3 3 3 3 3 3 3 3 2
9 8 6 6 4 7 6 4 4 5 4 3 4 3 2 3 4 4 3 0 1 2 2 4 5 5 4 2 2 3 4 2 4 5 2 3 4 3 3 4 4 3 2 3 2 3 2 3 3 4 3 3 2 1
9 6 6 2 3 6 2 4 3 3 4 4 3 2 3 4 5 3 1 3 2 2 2 3 4 3 4 2 2 2 2 2 4 4 2 2 2 4 3 2 1 3 3 2 4 3 0 0 1 2 1 1 1 1
6 5 4 4 2 4 5 4 3 5 4 3 1 3 4 6 2 1 1 1 2 1 2 2 3 3 4 3 3 3 3 4 5 5 2 4 4 3 4 4 3 3 1 3 3 3 3 3 1 1 2 2 3 4
4 5 5 5 6 4 6 4 4 3 1 2 4 5 5 6 3 1 1 2 4 5 6 6 6 5 5 4 3 5 5 3 5 4 4 4 3 3 3 3 3 2 1 2 3 3 3 4 4 4 3 3 4 2
5 3 5 6 6 7 7 3 1 2 3 3 5 3 3 2 1 2 2 2 3 6 6 5 3 3 4 4 4 3 3 3 5 4 3 2 3 4 2 2 2 2 2 1 2 4 5 5 4 5 4 4 3 2
2 2 6 5 7 5 3 1 1 2 3 2 3 5 4 4 3 2 3 3 3 3 2 3 3 3 3 3 1 3 3 1 2 4 3 4 5 3 0 1 1 2 2 2 2 4 6 5 5 4 4 4 3 3
2 4 6 5 6 2 3 2 7 7 5 6 4 5 3 1 3 4 3 2 4 4 4 3 2 1 4 2 2 2 2 3 1 1 2 2 3 2 1 1 1 0 1 2 2 2 2 3 3 2 3 4 4 3
4 4 6 6 3 2 2 3 3 4 4 5 4 3 5 5 3 3 2 2 3 2 1 3 3 2 3 2 1 1 1 3 3 3 4 3 2 1 1 0 1 2 3 3 3 2 2 1 1 2 3 4 4 5
5 6 5 5 4 1 2 5 5 3 5 3 2 1 1 4 4 4 2 1 3 3 4 4 3 3 4 4 4 3 3 3 4 4 4 4 3 2 2 1 1 2 3 3 2 1 1 1 1 2 3 4 6 5
Wind_Direction
292 288 285 276 268 261 253 247 242 236 232 228 222 215 215 212 206 197 193 183 207 157 202 192 195 167 170 181 161 153 82 244 88 154 180 187 206 238 218 181 174 175 170 203 121 153 274 201 99 174 224 270 265 334
290 287 280 277 273 262 254 246 237 232 228 223 217 212 200 197 202 188 105 180 183 206 206 226 230 208 193 185 175 162 202 159 161 132 200 155 198 51 163 239 7 244 182 185 177 210 260 223 219 233 204 233 299 339
290 289 288 287 264 261 255 249 230 223 225 217 211 205 200 193 187 186 141 166 83 130 158 169 190 212 255 211 195 147 249 181 186 170 160 189 204 129 164 230 207 261 168 203 151 240 261 295 302 330 301 255 265 252
293 289 288 283 266 261 257 244 229 216 214 204 199 201 194 191 186 177 156 153 123 118 152 182 168 167 191 160 149 159 124 77 94 112 140 143 169 159 221 232 173 208 130 202 268 341 327 73 12 350 328 321 272 261
307 305 298 291 273 267 261 248 223 210 199 193 195 196 191 184 182 161 152 159 159 98 134 188 113 230 195 173 170 149 166 181 128 136 150 208 196 126 281 86 231 352 256 186 243 54 275 262 341 8 354 350 358 356
331 319 313 303 286 276 268 248 225 195 185 182 185 181 179 177 164 132 128 176 151 130 208 161 223 166 186 186 197 194 191 163 184 173 221 213 202 120 131 284 60 31 8 356 301 327 282 272 296 22 24 349 7 356
354 353 360 358 331 311 316 260 194 167 166 165 167 165 166 162 142 148 182 157 157 159 185 75 108 182 148 113 115 122 115 149 227 166 209 178 205 155 127 234 22 357 340 321 328 340 327 37 343 358 36 358 19 13
20 44 25 19 40 38 60 85 122 142 146 148 145 149 139 137 125 155 347 144 135 122 156 154 156 147 159 152 161 141 138 129 210 175 201 173 76 102 200 34 355 352 324 303 348 329 304 335 7 20 32 23 34 32
42 30 23 36 57 54 60 90 112 118 129 129 121 112 114 69 176 92 118 99 69 108 156 128 182 165 147 124 114 92 113 156 263 150 199 92 94 130 30 357 350 340 327 313 319 309 324 25 27 17 35 38 45 38
29 34 27 35 59 63 73 84 98 101 101 103 86 76 104 152 121 104 38 56 17 312 148 215 88 171 195 119 136 144 175 141 153 237 85 65 88 88 24 9 351 336 325 346 334 348 354 6 39 31 42 47 55 64
29 26 38 41 31 51 84 87 86 70 49 59 95 52 105 95 79 86 115 144 175 221 186 243 207 122 4 110 113 20 150 150 172 208 130 113 91 42 354 5 1 356 359 4 10 36 27 22 37 53 56 59 60 69
32 21 31 53 62 55 60 60 33 71 68 79 90 75 31 25 38 79 76 68 180 73 21 76 56 69 25 51 94 149 117 100 105 21 65 69 65 26 23 24 16 14 27 39 39 48 50 52 54 64 67 71 69 72
38 35 38 47 70 64 74 85 82 108 58 53 52 55 27 343 50 39 34 32 34 351 353 27 83 94 68 52 72 106 122 68 98 54 71 46 37 25 30 38 43 40 48 53 56 62 67 64 58 59 64 56 64 65
47 46 47 50 59 67 72 56 105 73 68 56 49 41 64 5 30 29 247 236 299 321 339 21 76 57 8 62 353 84 29 59 64 65 78 31 44 57 53 54 60 52 57 59 56 57 61 63 64 61 62 63 68 66
62 47 40 35 44 53 59 67 65 59 65 65 49 56 58 325 334 316 301 351 328 292 305 75 52 54 22 70 25 84 47 65 57 115 60 44 48 51 46 40 56 64 65 64 63 66 65 66 67 65 59 62 63 64
37 55 22 26 33 30 44 62 41 65 62 64 46 31 327 57 336 349 345 332 335 332 348 37 80 64 40 59 49 23 71 78 184 65 86 80 74 70 71 66 59 55 56 63 64 66 68 65 66 69 65 60 60 63
49 52 349 2 44 38 35 71 50 49 59 48 34 1 35 115 250 311 320 332 309 12 54 32 52 47 65 55 53 20 101 140 128 86 64 61 68 64 66 63 59 63 59 55 59 60 66 68 73 74 69 58 64 64
50 324 348 350 38 39 37 44 73 62 64 23 64 336 356 348 314 338 346 341 2 62 49 58 62 51 45 89 112 99 94 96 85 86 78 70 68 62 62 68 64 63 65 60 56 55 53 57 62 63 68 69 68 62
334 336 341 35 88 84 68 42 67 87 53 66 343 339 26 340 4 2 8 22 40 51 90 64 59 43 60 56 112 112 106 95 102 83 70 59 62 68 69 69 67 62 61 60 63 61 61 57 58 59 62 67 70 53
329 358 15 77 60 79 74 52 74 84 72 113 49 33 45 12 338 333 24 27 44 57 52 50 28 13 54 60 70 84 85 95 102 91 71 56 52 61 52 58 57 62 64 62 51 45 57 57 41 43 51 58 74 55
29 343 7 49 53 67 87 97 63 98 132 93 174 132 69 39 30 22 24 4 49 39 62 48 62 67 67 66 69 76 68 75 72 93 110 86 53 62 62 52 57 54 61 50 63 45 50 55 45 54 68 58 49 49
322 355 44 18 72 58 69 22 107 141 95 118 148 70 66 37 6 19 9 33 52 9 29 60 64 77 71 63 67 71 87 84 79 75 66 80 78 62 47 16 72 64 56 43 63 81 38 44 48 62 79 42 55 52
21 36 39 37 72 71 106 7 86 77 93 92 56 58 33 35 357 13 68 39 61 28 51 63 73 79 83 73 70 65 72 90 85 83 85 85 81 57 68 57 59 94 77 26 47 74 64 29 55 66 60 49 58 40
35 49 49 61 67 104 34 31 45 61 49 52 67 67 33 62 27 61 72 60 57 43 62 82 96 94 70 58 58 60 68 91 96 72 57 104 94 68 65 70 57 57 69 83 63 59 51 36 20 63 40 73 42 75
68 355 63 24 8 71 61 36 25 57 70 47 77 43 347 48 68 65 99 164 39 31 29 61 71 74 104 92 48 47 27 74 106 100 13 75 99 76 62 54 38 34 68 81 52 65 29 30 38 57 52 68 93 48
72 360 56 58 353 88 120 86 88 124 102 60 62 39 43 75 72 93 116 196 155 175 187 152 133 98 63 54 106 56 37 52 89 83 44 33 107 131 151 122 39 330 21 107 122 122 130 92 83 75 16 338 156 143
70 22 54 34 25 79 71 45 44 77 72 100 122 58 68 69 113 235 123 43 120 223 113 126 106 106 120 106 74 45 44 52 79 100 80 55 52 65 137 153 180 240 133 124 131 141 165 187 200 235 272 298 243 214
81 39 83 335 57 33 100 66 60 75 96 51 74 53 112 153 155 189 85 56 103 91 75 54 46 64 82 81 84 96 65 59 87 74 58 49 48 42 53 50 25 77 97 152 156 149 158 171 186 201 214 242 266 233
44 340 76 42 49 45 39 64 82 27 3 85 107 120 113 68 1 93 71 75 84 100 94 90 32 36 61 56 42 23 77 107 90 64 66 290 333 300 15 36 19 16 16 356 247 197 210 182 193 198 216 223 260 300
8 51 86 63 60 43 324 119 337 297 4 82 98 103 66 41 35 45 64 65 91 108 129 118 125 97 135 107 76 17 2 12 190 157 185 230 223 237 320 47 356 342 3 56 20 337 6 28 20 27 21 8 13 353
77 68 76 59 74 325 199 282 74 70 37 41 24 80 86 89 29 28 48 62 109 105 100 85 39 55 115 126 130 112 317 298 279 210 150 133 132 132 114 336 300 282 91 84 63 57 34 31 28 4 357 349 335 339
36 78 118 104 151 257 62 60 71 72 359 44 356 34 18 49 42 317 342 80 70 88 222 136 123 242 203 227 254 255 201 137 165 165 145 122 114 190 176 39 51 90 89 79 69 85 80 87 335 326 309 309 308 310
47 64 60 93 72 83 277 86 33 64 33 44 352 158 149 139 162 246 325 57 174 179 172 192 196 142 148 157 154 169 168 159 161 146 146 142 147 162 158 149 115 109 107 99 94 103 62 8 300 299 298 294 300 296